Time,TemperatureF,DewpointF,PressureIn,WindDirection,WindDirectionDegrees,WindSpeedMPH,WindSpeedGustMPH,Humidity,HourlyPrecipIn,Conditions,Clouds,dailyrainin,SolarRadiationWatts/m^2,SoftwareType,DateUTC
2013-03-17 00:01:00,10.0,-3.0,-100.00,NNW,346,4.0,15.0,56,0.00,,,0.00,0.000000,,2013-03-17 05:01:00,
2013-03-17 00:32:00,10.0,-3.0,-100.00,NNW,346,4.0,15.0,56,0.00,,,0.00,0.000000,,2013-03-17 05:32:00,
2013-03-17 00:42:00,10.0,-3.0,-100.00,NNW,346,4.0,15.0,56,0.00,,,0.00,0.000000,,2013-03-17 05:42:00,
2013-03-17 00:52:00,10.0,-3.0,-100.00,NNW,346,4.0,15.0,56,0.00,,,0.00,0.000000,,2013-03-17 05:52:00,
2013-03-17 01:01:00,10.0,-2.0,-100.00,North,6,5.0,11.0,58,0.00,,,0.00,0.000000,,2013-03-17 06:01:00,
2013-03-17 01:32:00,10.0,-2.0,-100.00,North,6,5.0,11.0,58,0.00,,,0.00,0.000000,,2013-03-17 06:32:00,
2013-03-17 01:42:00,10.0,-2.0,-100.00,North,6,5.0,11.0,58,0.00,,,0.00,0.000000,,2013-03-17 06:42:00,
2013-03-17 01:52:00,10.0,-2.0,-100.00,North,6,5.0,11.0,58,0.00,,,0.00,0.000000,,2013-03-17 06:52:00,
2013-03-17 02:01:00,9.0,-1.0,-100.00,NNE,23,5.0,11.0,64,0.00,,,0.00,0.000000,,2013-03-17 07:01:00,
2013-03-17 02:22:00,9.0,-1.0,-100.00,NNE,23,5.0,11.0,64,0.00,,,0.00,0.000000,,2013-03-17 07:22:00,
2013-03-17 02:32:00,9.0,-1.0,-100.00,NNE,23,5.0,11.0,64,0.00,,,0.00,0.000000,,2013-03-17 07:32:00,
2013-03-17 02:42:00,9.0,-1.0,-100.00,NNE,23,5.0,11.0,64,0.00,,,0.00,0.000000,,2013-03-17 07:42:00,
2013-03-17 02:52:00,9.0,-1.0,-100.00,NNE,23,5.0,11.0,64,0.00,,,0.00,0.000000,,2013-03-17 07:52:00,
2013-03-17 03:01:00,8.0,0.0,-100.00,NE,37,2.0,7.0,68,0.00,,,0.00,0.000000,,2013-03-17 08:01:00,
2013-03-17 03:33:00,8.0,0.0,-100.00,NE,37,2.0,7.0,68,0.00,,,0.00,0.000000,,2013-03-17 08:33:00,
2013-03-17 03:42:00,8.0,0.0,-100.00,NE,37,2.0,7.0,68,0.00,,,0.00,0.000000,,2013-03-17 08:42:00,
2013-03-17 03:52:00,8.0,0.0,-100.00,NE,37,2.0,7.0,68,0.00,,,0.00,0.000000,,2013-03-17 08:52:00,
2013-03-17 04:01:00,6.0,-1.0,-100.00,NE,43,1.0,4.0,71,0.00,,,0.00,0.000000,,2013-03-17 09:01:00,
2013-03-17 04:22:00,6.0,-1.0,-100.00,NE,43,1.0,4.0,71,0.00,,,0.00,0.000000,,2013-03-17 09:22:00,
2013-03-17 04:33:00,6.0,-1.0,-100.00,NE,43,1.0,4.0,71,0.00,,,0.00,0.000000,,2013-03-17 09:33:00,
2013-03-17 04:43:00,6.0,-1.0,-100.00,NE,43,1.0,4.0,71,0.00,,,0.00,0.000000,,2013-03-17 09:43:00,
2013-03-17 04:53:00,6.0,-1.0,-100.00,NE,43,1.0,4.0,71,0.00,,,0.00,0.000000,,2013-03-17 09:53:00,
2013-03-17 05:01:00,5.0,-2.0,-100.00,North,1,0.0,3.0,73,0.00,,,0.00,0.000000,,2013-03-17 10:01:00,
2013-03-17 05:33:00,5.0,-2.0,-100.00,North,1,0.0,3.0,73,0.00,,,0.00,0.000000,,2013-03-17 10:33:00,
2013-03-17 05:42:00,5.0,-2.0,-100.00,North,1,0.0,3.0,73,0.00,,,0.00,0.000000,,2013-03-17 10:42:00,
2013-03-17 05:52:00,5.0,-2.0,-100.00,North,1,0.0,3.0,73,0.00,,,0.00,0.000000,,2013-03-17 10:52:00,
2013-03-17 06:01:00,-1.0,-6.0,-100.00,West,267,0.0,2.0,78,0.00,,,0.00,0.000000,,2013-03-17 11:01:00,
2013-03-17 06:22:00,-1.0,-6.0,-100.00,West,267,0.0,2.0,78,0.00,,,0.00,0.000000,,2013-03-17 11:22:00,
2013-03-17 06:32:00,-1.0,-6.0,-100.00,West,267,0.0,2.0,78,0.00,,,0.00,0.000000,,2013-03-17 11:32:00,
2013-03-17 06:43:00,-1.0,-6.0,-100.00,West,267,0.0,2.0,78,0.00,,,0.00,0.000000,,2013-03-17 11:43:00,
2013-03-17 06:52:00,-1.0,-6.0,-100.00,West,267,0.0,2.0,78,0.00,,,0.00,0.000000,,2013-03-17 11:52:00,
2013-03-17 07:01:00,-7.0,-13.0,-100.00,West,262,1.0,2.0,75,0.00,,,0.00,0.000000,,2013-03-17 12:01:00,
2013-03-17 07:22:00,-7.0,-13.0,-100.00,West,262,1.0,2.0,75,0.00,,,0.00,0.000000,,2013-03-17 12:22:00,
2013-03-17 07:33:00,-7.0,-13.0,-100.00,West,262,1.0,2.0,75,0.00,,,0.00,0.000000,,2013-03-17 12:33:00,
2013-03-17 07:43:00,-7.0,-13.0,-100.00,West,262,1.0,2.0,75,0.00,,,0.00,0.000000,,2013-03-17 12:43:00,
2013-03-17 07:52:00,-7.0,-13.0,-100.00,West,262,1.0,2.0,75,0.00,,,0.00,0.000000,,2013-03-17 12:52:00,
2013-03-17 08:01:00,-1.0,-7.0,-100.00,WNW,286,0.0,2.0,75,0.00,,,0.00,23.000000,,2013-03-17 13:01:00,
2013-03-17 08:32:00,-1.0,-7.0,-100.00,WNW,286,0.0,2.0,75,0.00,,,0.00,23.000000,,2013-03-17 13:32:00,
2013-03-17 08:43:00,-1.0,-7.0,-100.00,WNW,286,0.0,2.0,75,0.00,,,0.00,23.000000,,2013-03-17 13:43:00,
2013-03-17 08:52:00,-1.0,-7.0,-100.00,WNW,286,0.0,2.0,75,0.00,,,0.00,23.000000,,2013-03-17 13:52:00,
2013-03-17 09:01:00,11.0,-2.0,-100.00,ESE,120,3.0,5.0,55,0.00,,,0.00,189.000000,,2013-03-17 14:01:00,
2013-03-17 09:22:00,11.0,-2.0,-100.00,ESE,120,3.0,5.0,55,0.00,,,0.00,189.000000,,2013-03-17 14:22:00,
2013-03-17 09:33:00,11.0,-2.0,-100.00,ESE,120,3.0,5.0,55,0.00,,,0.00,189.000000,,2013-03-17 14:33:00,
2013-03-17 09:43:00,11.0,-2.0,-100.00,ESE,120,3.0,5.0,55,0.00,,,0.00,189.000000,,2013-03-17 14:43:00,
2013-03-17 09:53:00,11.0,-2.0,-100.00,ESE,120,3.0,5.0,55,0.00,,,0.00,189.000000,,2013-03-17 14:53:00,
2013-03-17 10:01:00,15.0,-1.0,-100.00,SE,144,4.0,11.0,48,0.00,,,0.00,415.000000,,2013-03-17 15:01:00,
2013-03-17 10:33:00,15.0,-1.0,-100.00,SE,144,4.0,11.0,48,0.00,,,0.00,415.000000,,2013-03-17 15:33:00,
2013-03-17 10:43:00,15.0,-1.0,-100.00,SE,144,4.0,11.0,48,0.00,,,0.00,415.000000,,2013-03-17 15:43:00,
2013-03-17 10:53:00,15.0,-1.0,-100.00,SE,144,4.0,11.0,48,0.00,,,0.00,415.000000,,2013-03-17 15:53:00,
2013-03-17 11:01:00,18.0,-1.0,-100.00,SE,128,4.0,10.0,42,0.00,,,0.00,589.000000,,2013-03-17 16:01:00,
2013-03-17 11:23:00,18.0,-1.0,-100.00,SE,128,4.0,10.0,42,0.00,,,0.00,589.000000,,2013-03-17 16:23:00,
2013-03-17 11:33:00,18.0,-1.0,-100.00,SE,128,4.0,10.0,42,0.00,,,0.00,589.000000,,2013-03-17 16:33:00,
2013-03-17 11:43:00,18.0,-1.0,-100.00,SE,128,4.0,10.0,42,0.00,,,0.00,589.000000,,2013-03-17 16:43:00,
2013-03-17 11:52:00,18.0,-1.0,-100.00,SE,128,4.0,10.0,42,0.00,,,0.00,589.000000,,2013-03-17 16:52:00,
2013-03-17 12:01:00,21.0,-1.0,-100.00,South,172,6.0,13.0,37,0.00,,,0.00,716.000000,,2013-03-17 17:01:00,
2013-03-17 12:33:00,21.0,-1.0,-100.00,South,172,6.0,13.0,37,0.00,,,0.00,716.000000,,2013-03-17 17:33:00,
2013-03-17 12:42:00,21.0,-1.0,-100.00,South,172,6.0,13.0,37,0.00,,,0.00,716.000000,,2013-03-17 17:42:00,
2013-03-17 12:53:00,21.0,-1.0,-100.00,South,172,6.0,13.0,37,0.00,,,0.00,716.000000,,2013-03-17 17:53:00,
2013-03-17 13:01:00,24.0,-2.0,-100.00,SSW,195,6.0,13.0,32,0.00,,,0.00,790.000000,,2013-03-17 18:01:00,
2013-03-17 13:22:00,24.0,-2.0,-100.00,SSW,195,6.0,13.0,32,0.00,,,0.00,790.000000,,2013-03-17 18:22:00,
2013-03-17 13:32:00,24.0,-2.0,-100.00,SSW,195,6.0,13.0,32,0.00,,,0.00,790.000000,,2013-03-17 18:32:00,
2013-03-17 13:42:00,24.0,-2.0,-100.00,SSW,195,6.0,13.0,32,0.00,,,0.00,790.000000,,2013-03-17 18:42:00,
2013-03-17 13:52:00,24.0,-2.0,-100.00,SSW,195,6.0,13.0,32,0.00,,,0.00,790.000000,,2013-03-17 18:52:00,
2013-03-17 14:01:00,25.0,-3.0,-100.00,SW,226,7.0,13.0,29,0.00,,,0.00,771.000000,,2013-03-17 19:01:00,
2013-03-17 14:23:00,25.0,-3.0,-100.00,SW,226,7.0,13.0,29,0.00,,,0.00,771.000000,,2013-03-17 19:23:00,
2013-03-17 14:33:00,25.0,-3.0,-100.00,SW,226,7.0,13.0,29,0.00,,,0.00,771.000000,,2013-03-17 19:33:00,
2013-03-17 14:42:00,25.0,-3.0,-100.00,SW,226,7.0,13.0,29,0.00,,,0.00,771.000000,,2013-03-17 19:42:00,
2013-03-17 14:53:00,25.0,-3.0,-100.00,SW,226,7.0,13.0,29,0.00,,,0.00,771.000000,,2013-03-17 19:53:00,
2013-03-17 15:01:00,27.0,-3.0,-100.00,SSE,165,7.0,15.0,26,0.00,,,-99.99,742.000000,,2013-03-17 20:01:00,
2013-03-17 15:33:00,27.0,-3.0,-100.00,SSE,165,7.0,15.0,26,0.00,,,-99.99,742.000000,,2013-03-17 20:33:00,
2013-03-17 15:43:00,27.0,-3.0,-100.00,SSE,165,7.0,15.0,26,0.00,,,-99.99,742.000000,,2013-03-17 20:43:00,
2013-03-17 15:52:00,27.0,-3.0,-100.00,SSE,165,7.0,15.0,26,0.00,,,-99.99,742.000000,,2013-03-17 20:52:00,
2013-03-17 16:01:00,28.0,-5.0,-100.00,South,190,7.0,18.0,23,0.00,,,0.00,613.000000,,2013-03-17 21:01:00,
2013-03-17 16:33:00,28.0,-5.0,-100.00,South,190,7.0,18.0,23,0.00,,,0.00,613.000000,,2013-03-17 21:33:00,
2013-03-17 16:43:00,28.0,-5.0,-100.00,South,190,7.0,18.0,23,0.00,,,0.00,613.000000,,2013-03-17 21:43:00,
2013-03-17 16:52:00,28.0,-5.0,-100.00,South,190,7.0,18.0,23,0.00,,,0.00,613.000000,,2013-03-17 21:52:00,
2013-03-17 17:01:00,28.0,-5.0,-100.00,South,173,7.0,14.0,23,0.00,,,0.00,466.000000,,2013-03-17 22:01:00,
2013-03-17 17:33:00,28.0,-5.0,-100.00,South,173,7.0,14.0,23,0.00,,,0.00,466.000000,,2013-03-17 22:33:00,
2013-03-17 17:42:00,28.0,-5.0,-100.00,South,173,7.0,14.0,23,0.00,,,0.00,466.000000,,2013-03-17 22:42:00,
2013-03-17 17:53:00,28.0,-5.0,-100.00,South,173,7.0,14.0,23,0.00,,,0.00,466.000000,,2013-03-17 22:53:00,
2013-03-17 18:01:00,27.0,-6.0,-100.00,South,177,7.0,13.0,23,0.00,,,0.00,225.000000,,2013-03-17 23:01:00,
2013-03-17 18:23:00,27.0,-6.0,-100.00,South,177,7.0,13.0,23,0.00,,,0.00,225.000000,,2013-03-17 23:23:00,
2013-03-17 18:33:00,27.0,-6.0,-100.00,South,177,7.0,13.0,23,0.00,,,0.00,225.000000,,2013-03-17 23:33:00,
2013-03-17 18:43:00,27.0,-6.0,-100.00,South,177,7.0,13.0,23,0.00,,,0.00,225.000000,,2013-03-17 23:43:00,
2013-03-17 18:53:00,27.0,-6.0,-100.00,South,177,7.0,13.0,23,0.00,,,0.00,225.000000,,2013-03-17 23:53:00,
2013-03-17 19:01:00,24.0,-6.0,-100.00,SSE,163,3.0,15.0,26,0.00,,,0.00,70.000000,,2013-03-18 00:01:00,
2013-03-17 19:33:00,24.0,-6.0,-100.00,SSE,163,3.0,15.0,26,0.00,,,0.00,70.000000,,2013-03-18 00:33:00,
2013-03-17 19:42:00,24.0,-6.0,-100.00,SSE,163,3.0,15.0,26,0.00,,,0.00,70.000000,,2013-03-18 00:42:00,
2013-03-17 19:53:00,24.0,-6.0,-100.00,SSE,163,3.0,15.0,26,0.00,,,0.00,70.000000,,2013-03-18 00:53:00,
2013-03-17 20:01:00,21.0,-6.0,-100.00,SSE,165,2.0,9.0,30,0.00,,,0.00,1.000000,,2013-03-18 01:01:00,
2013-03-17 20:33:00,21.0,-6.0,-100.00,SSE,165,2.0,9.0,30,0.00,,,0.00,1.000000,,2013-03-18 01:33:00,
2013-03-17 20:42:00,21.0,-6.0,-100.00,SSE,165,2.0,9.0,30,0.00,,,0.00,1.000000,,2013-03-18 01:42:00,
2013-03-17 20:52:00,21.0,-6.0,-100.00,SSE,165,2.0,9.0,30,0.00,,,0.00,1.000000,,2013-03-18 01:52:00,
2013-03-17 21:01:00,21.0,-4.0,-100.00,South,173,4.0,8.0,33,0.00,,,0.00,0.000000,,2013-03-18 02:01:00,
2013-03-17 21:22:00,21.0,-4.0,-100.00,South,173,4.0,8.0,33,0.00,,,0.00,0.000000,,2013-03-18 02:22:00,
2013-03-17 21:32:00,21.0,-4.0,-100.00,South,173,4.0,8.0,33,0.00,,,0.00,0.000000,,2013-03-18 02:32:00,
2013-03-17 21:42:00,21.0,-4.0,-100.00,South,173,4.0,8.0,33,0.00,,,0.00,0.000000,,2013-03-18 02:42:00,
2013-03-17 21:52:00,21.0,-4.0,-100.00,South,173,4.0,8.0,33,0.00,,,0.00,0.000000,,2013-03-18 02:52:00,
2013-03-17 22:01:00,20.0,-1.0,-100.00,South,176,5.0,10.0,39,0.00,,,0.00,0.000000,,2013-03-18 03:01:00,
2013-03-17 22:33:00,20.0,-1.0,-100.00,South,176,5.0,10.0,39,0.00,,,0.00,0.000000,,2013-03-18 03:33:00,
2013-03-17 22:42:00,20.0,-1.0,-100.00,South,176,5.0,10.0,39,0.00,,,0.00,0.000000,,2013-03-18 03:42:00,
2013-03-17 22:53:00,20.0,-1.0,-100.00,South,176,5.0,10.0,39,0.00,,,0.00,0.000000,,2013-03-18 03:53:00,
2013-03-17 23:01:00,20.0,4.0,-100.00,South,189,7.0,16.0,48,0.00,,,0.00,0.000000,,2013-03-18 04:01:00,
2013-03-17 23:23:00,20.0,4.0,-100.00,South,189,7.0,16.0,48,0.00,,,0.00,0.000000,,2013-03-18 04:23:00,
2013-03-17 23:33:00,20.0,4.0,-100.00,South,189,7.0,16.0,48,0.00,,,0.00,0.000000,,2013-03-18 04:33:00,
2013-03-17 23:42:00,20.0,4.0,-100.00,South,189,7.0,16.0,48,0.00,,,0.00,0.000000,,2013-03-18 04:42:00,
2013-03-17 23:53:00,20.0,4.0,-100.00,South,189,7.0,16.0,48,0.00,,,0.00,0.000000,,2013-03-18 04:53:00,